Flag for Australia Weather past 2 weeks in Perth, Western Australia, Australia

Now
59 °F

Scattered showers. Partly cloudy.


Feels Like: 60 °F
Forecast: 54 / 65 °F
Wind: 3 mph from Northeast

Location: Belmont Perth Airport

Current Time: Aug 21, 2014 at 10:09:37 PM

Latest Report: Aug 21, 2014 at 9:30 PM


Visibility: N/A

Pressure: 29.98 "Hg

Humidity: 94%

Dew point: 57 °F

Location of PerthLocation

Historic Weather in Perth — Graph

°F

Perth temperature yesterday

Maximum temperature yesterday: 68 °F (at 3:30 PM)
Minimum temperature yesterday: 54 °F (at 4:00 AM)
Average temperature yesterday: 59 °F

Past Weeks' High & Low Weather Summary

 TemperatureHumidityPressure
High79 °F (Aug 17, 1:00 PM)100% (Aug 7, 5:00 AM)30.39 "Hg (Aug 7, 5:00 AM)
Low46 °F (Aug 15, 7:00 AM)24% (Aug 14, 1:00 AM)29.77 "Hg (Aug 21, 5:30 AM)
Average61 °F68%30.17 "Hg
* Reported Aug 6 9:00 PM — Aug 21 9:00 PM, Perth, Weather by CustomWeather, © 2014

Note: Actual official high and low records may vary slightly from our data, if they occured in-between our weather recording intervals... More about our weather records

Advertising

Perth weather history for previous 24 hours

 ConditionsComfort  
Time TempWeatherWind HumidityBarometerVisibility
9:00 PM
Aug 21
59 °FSprinkles. Partly cloudy.6 mph94%29.98 "HgN/A
8:30 PM59 °FSprinkles. Passing clouds.8 mph94%29.98 "Hg5 mi
8:00 PM57 °FScattered showers. Partly cloudy.8 mph100%29.98 "HgN/A
7:30 PM59 °FSprinkles. Partly cloudy.7 mph94%29.95 "Hg6 mi
7:00 PM57 °FScattered showers. Partly cloudy.7 mph100%29.95 "HgN/A
6:30 PM59 °FScattered showers. Partly cloudy.6 mph94%29.95 "HgN/A
6:00 PM59 °FPassing clouds.6 mph88%29.92 "HgN/A
5:30 PM59 °FScattered showers. Passing clouds.7 mph94%29.92 "HgN/A
5:00 PM59 °FRain showers. Partly cloudy.12 mph94%29.92 "Hg2 mi
4:30 PM59 °FSprinkles. Broken clouds.9 mph94%29.92 "Hg4 mi
4:00 PM59 °FSprinkles. Broken clouds.10 mph94%29.89 "Hg4 mi
3:30 PM61 °FSprinkles. Partly sunny.14 mph94%29.89 "Hg3 mi
3:00 PM63 °FSprinkles. Partly sunny.12 mph83%29.89 "Hg4 mi
2:48 PM66 °FRain showers. Partly sunny.17 mph64%29.89 "Hg4 mi
2:30 PM66 °FScattered showers. Partly sunny.18 mph60%29.86 "HgN/A
2:00 PM68 °FPartly sunny.20 mph56%29.86 "HgN/A
1:30 PM70 °FPartly sunny.20 mph50%29.86 "HgN/A
1:00 PM70 °FScattered clouds.15 mph53%29.86 "HgN/A
12:30 PM68 °FScattered clouds.18 mph49%29.86 "HgN/A
12:00 PM68 °FScattered clouds.14 mph49%29.89 "HgN/A
11:30 AM66 °FPassing clouds.16 mph52%29.89 "HgN/A
11:00 AM68 °FPartly sunny.17 mph56%29.89 "HgN/A
10:00 AM66 °FBroken clouds.17 mph64%29.89 "HgN/A
9:30 AM66 °FPartly sunny.13 mph64%29.89 "HgN/A
9:00 AM66 °FPartly sunny.9 mph73%29.86 "HgN/A
8:30 AM64 °FScattered clouds.8 mph78%29.86 "HgN/A
8:00 AM63 °FScattered showers. Broken clouds.9 mph88%29.86 "Hg6 mi
7:30 AM61 °FSprinkles. Broken clouds.8 mph100%29.83 "Hg4 mi
7:00 AM61 °FSprinkles. Broken clouds.10 mph94%29.83 "Hg3 mi
6:00 AM61 °FSprinkles. Mostly cloudy.16 mph88%29.77 "HgN/A
5:30 AM61 °FSprinkles. Passing clouds.16 mph88%29.77 "HgN/A
4:30 AM61 °FPassing clouds.15 mph83%29.80 "HgN/A
4:00 AM61 °FSprinkles. Passing clouds.13 mph83%29.80 "HgN/A
3:30 AM61 °FPassing clouds.13 mph77%29.80 "HgN/A
3:00 AM61 °FPassing clouds.13 mph77%29.83 "HgN/A
2:30 AM61 °FPassing clouds.13 mph77%29.83 "HgN/A
2:00 AM61 °FPartly cloudy.10 mph83%29.83 "HgN/A
1:30 AM61 °FPassing clouds.12 mph83%29.86 "HgN/A
1:00 AM59 °FPassing clouds.13 mph82%29.86 "HgN/A
12:30 AM59 °FPassing clouds.13 mph82%29.86 "HgN/A
12:00 AM59 °FPassing clouds.13 mph82%29.89 "HgN/A
11:30 PM
Aug 20
59 °FPassing clouds.13 mph77%29.89 "HgN/A
11:00 PM59 °FPassing clouds.8 mph77%29.89 "HgN/A
10:30 PM57 °FPassing clouds.9 mph82%29.92 "HgN/A
10:00 PM59 °FPassing clouds.8 mph77%29.92 "HgN/A
Weather by CustomWeather, © 2014

See weather overviewHow to use our weather pages